STARLINK-6307, 56529

Orbit data source: Space-Track

STARLINK-6307, 56529 is a payload satellite owned by SpaceX/Seattle (US) in LEO that was launched on Sun, 14 May 2023 UTC via an FALCON 9 launch vehicle from the Air Force Eastern Test Range (AFETR). Payload-class satellites include a variety of spacecraft equipped with specific instruments for various scientific and technological missions. These include communications satellites like Starlink; space stations such as the ISS; scientific satellites like the Hubble; Earth observation satellites from companies like Planet Labs, Umbra, and HawkEye 360; GPS; miniature CubeSats for education and research; and military/defense satellites.

Loading next visibility...
Identifier
56529, 2023-065AC
Orbit
LEO
Country
Flag of USUS
Related business
Manufacturer
SpaceX/Seattle
Mission
Operational Commercial Communications
Bus & Motor
STARLINK, Unknown motor
Mass
305 kg wet, ~290 kg dry
Launch date (UTC)
2023-05-14 (3 years ago)
Launch vehicle
FALCON 9
Launch site
Air Force Eastern Test Range (AFETR)
Object type
Payload
Rocket body
Debris
Shape & HBR
Box + 1 Pan, 10.1 m
Radar Cross Section
11.087 m², Large (>1 m²)

Expand to show TLE details & history
Last TLE update: 2 days ago

TLE from 2 days ago
0 STARLINK-6307
1 56529U 23065AC  26171.19626404  .00001480  00000-0  63295-4 0  9994
2 56529  43.0035 342.5431 0001937 275.0173  85.0458 15.27580880172409
Epoch: 2026-06-20T04:42Z
TLE epoch observation values (Epoch: 2026-06-20T04:42:37.213Z)
Latitude
0.00003°
Longitude
3.47372°
Altitude
482.708 km
Speed
7.626 km/s
True Right ascension
22h 50m 10s
True Declination
0° 00' 00"
Sunlit
Object was in daylight at epoch
Visualization orbit readout
Latitude
Unknown
Longitude
Unknown
Altitude
Unknown
Speed
Unknown
Apparent Right ascension
Unknown
Apparent Declination
Unknown
Sunlit
N/A
Visualization observer readout
Local Sidereal Time
21:24:17
Azimuth
Unknown
Elevation
Unknown
Doppler factor
Unknown
Orbital elements
Apogee altitude
486.32 km
Perigee altitude
483.662 km
Semi-major axis
6,863.128 km
Eccentricity
0.00019
Inclination
43.0035°
RAAN
342.5431°
Arg. of periapsis
275.0173°
True anomaly
85.06791°
Mean anomaly
85.0458°
Eccentric anomaly
85.05686°
Mean motion
3.81733 °/min
Orbital period
94.31 mins
BSTAR
0.000063295
Loading maneuver chart data...
Computing Atmospheric mass density...
Loading historical data...
Loading historical data...
Loading historical data...
Loading historical data...
Loading historical data...
Loading historical data...
Loading historical data...

Documentation

Showing up to 5 results
|